RH
50 56 57 59 60 60 60 60 60 58 56 56 57 56 55 54 53 51 51 46 40 40 41 40 39 38 37 36 33 35 39 41 43 44 42 42 43 45 46 44 44 44
44 49 52 55 58 60 60 60 60 57 56 56 56 57 57 55 53 51 51 49 44 42 41 39 40 38 38 40 36 32 34 36 40 45 42 39 42 45 44 43 43 42
43 46 48 51 55 59 61 61 60 58 58 57 56 58 58 56 54 51 49 49 47 47 44 40 40 39 39 41 38 34 37 35 37 44 43 38 40 44 44 42 44 44
44 45 46 47 52 57 58 61 62 60 58 57 56 56 56 56 56 54 48 46 47 50 48 44 43 42 41 41 37 36 40 38 35 40 41 37 36 40 43 43 45 47
44 44 45 46 49 52 54 56 60 61 60 58 56 55 55 56 57 56 52 47 45 47 47 44 43 44 44 42 37 37 43 43 39 37 36 36 37 39 41 42 44 46
46 44 44 46 47 48 51 52 53 58 60 59 57 56 56 55 55 55 54 51 47 46 46 45 45 45 46 44 39 39 44 44 44 44 38 35 39 41 41 42 43 43
47 46 44 45 45 46 49 50 50 50 53 57 60 58 57 57 55 54 54 53 50 47 46 47 47 46 48 50 44 39 39 40 44 49 45 38 38 40 41 44 44 39
46 46 44 43 44 45 47 49 48 48 48 52 57 57 57 58 57 56 55 53 51 49 48 48 47 45 49 55 51 42 40 41 43 46 45 41 38 36 37 41 41 36
45 44 44 44 43 44 46 46 47 48 48 49 51 54 56 58 58 57 57 55 53 52 51 51 49 44 45 51 51 46 44 45 46 48 47 44 41 38 37 39 38 35
43 43 44 44 43 42 43 43 43 46 49 49 49 51 54 55 55 57 58 56 54 54 52 50 49 46 44 46 47 46 45 44 46 49 48 47 45 42 42 42 40 38
43 42 42 42 42 42 41 41 41 44 47 49 49 50 52 53 53 55 57 56 53 54 54 50 48 46 44 43 44 44 44 45 46 46 45 45 44 42 42 42 40 39
45 45 43 42 41 41 41 41 41 41 43 46 49 49 49 51 52 52 55 54 53 54 56 52 49 48 45 41 41 42 43 44 44 44 44 43 42 43 43 42 40 39
44 46 46 44 41 40 41 41 40 40 41 43 46 47 47 49 51 52 53 54 53 54 56 54 52 51 50 44 41 41 40 41 41 41 43 44 43 43 43 43 42 39
48 46 46 47 45 42 41 40 40 41 41 41 42 44 45 45 48 51 52 53 53 53 55 55 53 52 54 51 45 41 39 39 41 41 42 45 46 43 42 44 44 42
58 54 51 50 49 48 45 42 41 42 42 42 42 43 45 45 45 47 50 51 53 52 52 54 54 55 60 57 49 48 47 41 39 40 41 44 46 44 42 43 42 43
66 62 58 56 55 55 54 50 46 43 42 43 43 44 45 45 44 44 46 49 51 52 51 52 53 55 60 60 53 54 55 45 38 41 42 43 45 44 43 43 42 42
74 69 64 63 62 62 61 59 56 52 47 44 44 44 44 45 45 44 44 45 47 50 51 52 53 51 56 60 54 50 50 45 41 42 42 43 44 42 40 40 40 40
84 80 76 72 71 70 69 67 64 61 58 54 51 47 45 44 44 43 42 43 45 46 48 53 55 53 52 56 53 49 47 45 43 43 43 44 43 40 38 39 40 40
84 85 85 82 81 81 80 77 74 71 69 67 64 60 57 53 49 46 43 43 42 42 46 50 54 54 53 53 53 52 49 47 45 44 44 45 45 44 43 42 43 42
83 86 89 87 87 88 87 87 85 81 78 75 72 70 69 66 62 57 54 51 44 41 45 48 49 52 56 55 54 54 53 51 49 48 47 46 45 45 45 45 47 47
85 87 87 86 88 90 90 89 89 88 85 81 77 76 76 73 69 65 64 63 56 51 53 53 49 49 53 54 54 55 55 54 52 51 51 50 46 44 44 46 50 51
82 83 83 84 87 90 91 90 89 89 89 87 82 79 80 79 76 74 72 70 66 65 66 65 62 57 52 50 52 53 52 53 52 51 52 53 51 48 47 47 49 47
76 76 77 80 85 88 90 91 91 92 93 92 88 84 83 84 83 82 81 75 71 71 68 66 69 67 57 50 50 49 47 48 50 50 53 55 53 51 49 51 56 57
74 74 74 77 82 86 88 90 91 93 94 93 91 89 89 90 88 85 84 81 80 79 72 66 70 74 68 58 52 49 45 44 46 48 52 56 56 57 57 57 61 65
72 73 74 75 79 83 85 87 89 91 93 94 94 93 93 94 93 90 88 88 88 86 80 72 72 77 76 68 60 55 47 41 43 45 47 54 62 67 66 62 64 69
69 70 72 73 75 77 79 81 83 86 89 91 91 91 91 92 93 93 92 92 92 91 86 79 76 77 78 74 71 68 58 47 45 44 43 48 56 64 67 64 66 72